Regional Weather Roundup
Issued by NWS Newport/Morehead, NC

Current Version | Previous Version | Text Only | Print | Product List | Glossary On
Versions: 1 2 3 4 5 6 7 8 9 10 11 12 13 14 15 16 17 18 19 20 21 22 23 24 25 26 27 28 29 30 31 32 33 34 35 36 37 38 39 40 41 42 43 44 45 46 47 48 49 50
348
ASUS42 KMHX 071712
RWRMHX
WEATHER ROUNDUP FOR EASTERN NORTH CAROLINA
NATIONAL WEATHER SERVICE NEWPORT/MOREHEAD CITY NC
1200 PM EST WED DEC 07 2016

NOTE: "FAIR" INDICATES FEW OR NO CLOUDS BELOW 12,000 FEET
WITH NO SIGNIFICANT WEATHER AND/OR OBSTRUCTIONS TO VISIBILITY

NCZ015>017-031-032-045>047-102-103-071800-
NORTH COAST

CITY           SKY/WX    TMP DP  RH WIND       PRES   REMARKS
EDENTON        MOSUNNY   55  46  70 N6G17     30.04F
ELIZABETH CITY MOSUNNY   55  44  66 N12       30.02F
KITTY HAWK     MOSUNNY   52  47  83 N12G17    30.00F
MANTEO         CLOUDY    51  45  82 N12G17    30.02F

$$

NCZ045>047-081-094-103-104-071800-
CENTRAL COAST

CITY           SKY/WX    TMP DP  RH WIND       PRES   REMARKS
FRISCO         CLOUDY    50  45  83 VRB5      30.02S

$$

NCZ095-097-098-100-101-071800-
SOUTHERN COAST

CITY           SKY/WX    TMP DP  RH WIND       PRES   REMARKS
BEAUFORT       SUNNY     56  46  69 N13       30.03F
CEDAR ISLAND   NOT AVBL
JACKSONVILLE   NOT AVBL
PINEY ISLAND   SUNNY    N/A N/A N/A N13       30.03F
WILMINGTON     SUNNY     57  45  64 N8        30.04F


$$

NCZ011>013-027>030-043-044-078>080-089-090>093-098-071800-
COASTAL PLAIN

CITY           SKY/WX    TMP DP  RH WIND       PRES   REMARKS
AHOSKIE        SUNNY     50  42  75 NW5       30.05F
CLINTON        SUNNY     57  44  62 NE3       30.06F
ELIZABETHTOWN  SUNNY     56  45  66 CALM      30.06F
GOLDSBORO      SUNNY     57  45  65 CALM      30.03F
GREENVILLE     SUNNY     54  45  71 N7G16     30.07F
HAVELOCK       SUNNY     56  45  66 N10       30.04F
KENANSVILLE    NOT AVBL
KINSTON        MOSUNNY   57  45  62 N8        30.05F
NEW BERN       SUNNY     55  45  68 N8        30.05F
RICHLANDS      SUNNY     56  45  66 NW6       30.05F
ROCKY MOUNT    SUNNY     56  43  61 N8        30.05F
WASHINGTON     SUNNY     56  44  64 N7        30.05F
WHITEVILLE     SUNNY     56  44  64 NE6       30.05F

$$

AMZ130-135-150-152-154-156-158-170-250-252-270-ANZ085-086-088-633-658-670-071800-
MARINE OBSERVATIONS

STATION/POSITION TIME  TEMP    WIND        PRES    WAVE   SWELL
                       AIR SEA DIR/SP/G            HT/PER HT/PER
                 (UTC) (F)     (DEG/KT/KT) (MB)    (FT/S) (FT/S)
CHESAPEAKE LIGHT NOT AVBL
64 E VA BEACH    1650   52 59  350/ 19/ 23 1014.3    8/10   3/10
DUCK             1636   51 54  340/ 20/ 23 1015.2
2 E DUCK         NOT AVBL
OREGON INLET     1636   50 56  320/ 13/ 17 1015.9
13E OREGON INLT  NOT AVBL
HATTERAS CG      1636   49 60  340/ 14/ 17 1016.4
DIAMOND BUOY     1650   55 76  350/ 16/ 21 1016.1    6/11   3/11
CAPE LOOKOUT     1700   52     340/  9/ 12 1016.7
BEAUFORT LAB     1636   52 55  350/ 10/ 13 1016.1
30 SE NEW RVR IN 1608   51 70  350/ 12/ 17 1017.4
30 SE NEW RVR IN NOT AVBL
27 SE WRIGHTSVLE 1608   53 68   10/ 14/ 19 1017.0
5 SE WRIGHTSVLE  1608   51 61  350/ 12/ 17 1017.4
225 S CAPE HAT   1650   71 74  320/ 14/ 16 1014.7    8/ 8   7/ 8
41 SE CHARLESTON 1650   61 74   40/  6/ 10 1017.2    3/ 8   2/ 8

$$




USA.gov is the U.S. government's official web portal to all federal, state and local government web resources and services.